Year,Month,Day,Hour,Minute,Value (Times are PST for temperature in C)
2013,03,01,00,00,6.30
2013,03,01,00,01,6.30
2013,03,01,00,02,6.30
2013,03,01,00,03,6.30
2013,03,01,00,04,6.30
2013,03,01,00,05,6.30
2013,03,01,00,06,6.30
2013,03,01,00,07,6.30
2013,03,01,00,08,6.30
2013,03,01,00,09,6.30
2013,03,01,00,10,6.30
2013,03,01,00,11,6.30
2013,03,01,00,12,6.30
2013,03,01,00,13,6.30
2013,03,01,00,14,6.30
2013,03,01,00,15,6.30
2013,03,01,00,16,6.30
2013,03,01,00,17,6.30
2013,03,01,00,18,6.30
2013,03,01,00,19,6.30
2013,03,01,00,20,6.30
2013,03,01,00,21,6.30
2013,03,01,00,22,6.30
2013,03,01,00,23,6.30
2013,03,01,00,24,6.30
2013,03,01,00,25,6.30
2013,03,01,00,26,6.30
2013,03,01,00,27,6.30
2013,03,01,00,28,6.30
2013,03,01,00,29,6.30
2013,03,01,00,30,6.40
2013,03,01,00,31,6.40
2013,03,01,00,32,6.40
2013,03,01,00,33,6.40
2013,03,01,00,34,6.40
2013,03,01,00,35,6.50
2013,03,01,00,36,6.60
2013,03,01,00,37,6.60
2013,03,01,00,38,6.60
2013,03,01,00,39,6.60
2013,03,01,00,40,6.60
2013,03,01,00,41,6.70
2013,03,01,00,42,6.70
2013,03,01,00,43,6.70
2013,03,01,00,44,6.70
2013,03,01,00,45,6.80
2013,03,01,00,46,6.80
2013,03,01,00,47,6.80
2013,03,01,00,48,6.80
2013,03,01,00,49,6.80
2013,03,01,00,50,6.80
2013,03,01,00,51,6.80
2013,03,01,00,52,6.80
2013,03,01,00,53,6.80
2013,03,01,00,54,6.80
2013,03,01,00,55,6.80
2013,03,01,00,56,6.80
2013,03,01,00,57,6.80
2013,03,01,00,58,6.80
2013,03,01,00,59,6.80
2013,03,01,01,00,6.90
2013,03,01,01,01,6.90
2013,03,01,01,02,6.90
2013,03,01,01,03,7.00
2013,03,01,01,04,7.00
2013,03,01,01,05,7.00
2013,03,01,01,06,7.00
2013,03,01,01,07,7.00
2013,03,01,01,08,7.10
2013,03,01,01,09,7.10
2013,03,01,01,10,7.10
2013,03,01,01,11,7.10
2013,03,01,01,12,7.10
2013,03,01,01,13,7.10
2013,03,01,01,14,7.10
2013,03,01,01,15,7.10
2013,03,01,01,16,7.10
2013,03,01,01,17,7.10
2013,03,01,01,18,7.10
2013,03,01,01,19,7.10
2013,03,01,01,20,7.10
2013,03,01,01,21,7.10
2013,03,01,01,22,7.10
2013,03,01,01,23,7.10
2013,03,01,01,24,7.10
2013,03,01,01,25,7.10
2013,03,01,01,26,7.10
2013,03,01,01,27,7.00
2013,03,01,01,28,7.00
2013,03,01,01,29,7.00
2013,03,01,01,30,7.00
2013,03,01,01,31,7.00
2013,03,01,01,32,7.00
2013,03,01,01,33,7.00
2013,03,01,01,34,7.00
2013,03,01,01,35,7.00
2013,03,01,01,36,7.00
2013,03,01,01,37,7.00
2013,03,01,01,38,7.00
2013,03,01,01,39,7.00
2013,03,01,01,40,7.00
2013,03,01,01,41,7.00
2013,03,01,01,42,7.00
2013,03,01,01,43,7.00
2013,03,01,01,44,7.00
2013,03,01,01,45,6.90
2013,03,01,01,46,6.90
2013,03,01,01,47,6.90
2013,03,01,01,48,6.90
2013,03,01,01,49,6.90
2013,03,01,01,50,6.90
2013,03,01,01,51,6.90
2013,03,01,01,52,6.90
2013,03,01,01,53,6.90
2013,03,01,01,54,6.90
2013,03,01,01,55,6.90
2013,03,01,01,56,6.90
2013,03,01,01,57,6.90
2013,03,01,01,58,6.90
2013,03,01,01,59,6.90
2013,03,01,02,00,6.90
2013,03,01,02,01,6.90
2013,03,01,02,02,7.00
2013,03,01,02,03,7.00
2013,03,01,02,04,7.00
2013,03,01,02,05,7.00
2013,03,01,02,06,7.00
2013,03,01,02,07,7.00
2013,03,01,02,08,7.00
2013,03,01,02,09,7.00
2013,03,01,02,10,7.00
2013,03,01,02,11,7.00
2013,03,01,02,12,7.00
2013,03,01,02,13,7.00
2013,03,01,02,14,7.00
2013,03,01,02,15,7.00
2013,03,01,02,16,7.00
2013,03,01,02,17,7.00
2013,03,01,02,18,7.10
2013,03,01,02,19,7.10
2013,03,01,02,20,7.10
2013,03,01,02,21,7.10
2013,03,01,02,22,7.10
2013,03,01,02,23,7.10
2013,03,01,02,24,7.10
2013,03,01,02,25,7.10
2013,03,01,02,26,7.10
2013,03,01,02,27,7.10
2013,03,01,02,28,7.10
2013,03,01,02,29,7.10
2013,03,01,02,30,7.10
2013,03,01,02,31,7.10
2013,03,01,02,32,7.10
2013,03,01,02,33,7.10
2013,03,01,02,34,7.10
2013,03,01,02,35,7.10
2013,03,01,02,36,7.10
2013,03,01,02,37,7.10
2013,03,01,02,38,7.10
2013,03,01,02,39,7.10
2013,03,01,02,40,7.10
2013,03,01,02,41,7.10
2013,03,01,02,42,7.10
2013,03,01,02,43,7.10
2013,03,01,02,44,7.10
2013,03,01,02,45,7.10
2013,03,01,02,46,7.10
2013,03,01,02,47,7.10
2013,03,01,02,48,7.10
2013,03,01,02,49,7.10
2013,03,01,02,50,7.10
2013,03,01,02,51,7.10
2013,03,01,02,52,7.10
2013,03,01,02,53,7.10
2013,03,01,02,54,7.10
2013,03,01,02,55,7.00
2013,03,01,02,56,7.00
2013,03,01,02,57,7.00
2013,03,01,02,58,7.00
2013,03,01,02,59,7.00
2013,03,01,03,00,7.00
2013,03,01,03,01,7.00
2013,03,01,03,02,7.00
2013,03,01,03,03,7.00
2013,03,01,03,04,7.00
2013,03,01,03,05,7.00
2013,03,01,03,06,7.00
2013,03,01,03,07,7.00
2013,03,01,03,08,7.00
2013,03,01,03,09,7.00
2013,03,01,03,10,7.00
2013,03,01,03,11,7.00
2013,03,01,03,12,7.00
2013,03,01,03,13,7.00
2013,03,01,03,14,7.00
2013,03,01,03,15,7.00
2013,03,01,03,16,7.00
2013,03,01,03,17,7.00
2013,03,01,03,18,7.00
2013,03,01,03,19,7.00
2013,03,01,03,20,7.00
2013,03,01,03,21,7.00
2013,03,01,03,22,7.00
2013,03,01,03,23,7.00
2013,03,01,03,24,7.00
2013,03,01,03,25,7.00
2013,03,01,03,26,7.00
2013,03,01,03,27,7.00
2013,03,01,03,28,7.00
2013,03,01,03,29,7.00
2013,03,01,03,30,7.00
2013,03,01,03,31,7.00
2013,03,01,03,32,7.00
2013,03,01,03,33,7.00
2013,03,01,03,34,7.00
2013,03,01,03,35,7.00
2013,03,01,03,36,7.00
2013,03,01,03,37,7.00
2013,03,01,03,38,7.00
2013,03,01,03,39,7.00
2013,03,01,03,40,7.00
2013,03,01,03,41,6.90
2013,03,01,03,42,6.90
2013,03,01,03,43,6.90
2013,03,01,03,44,6.90
2013,03,01,03,45,6.90
2013,03,01,03,46,6.90
2013,03,01,03,47,6.90
2013,03,01,03,48,6.90
2013,03,01,03,49,6.90
2013,03,01,03,50,6.90
2013,03,01,03,51,6.90
2013,03,01,03,52,6.90
2013,03,01,03,53,6.90
2013,03,01,03,54,6.90
2013,03,01,03,55,6.90
2013,03,01,03,56,6.90
2013,03,01,03,57,7.00
2013,03,01,03,58,7.00
2013,03,01,03,59,7.00
2013,03,01,04,00,7.00
2013,03,01,04,01,7.00
2013,03,01,04,02,7.00
2013,03,01,04,03,7.00
2013,03,01,04,04,7.00
2013,03,01,04,05,7.00
2013,03,01,04,06,7.00
2013,03,01,04,07,7.00
2013,03,01,04,08,7.00
2013,03,01,04,09,7.00
2013,03,01,04,10,7.00
2013,03,01,04,11,7.00
2013,03,01,04,12,7.00
2013,03,01,04,13,7.10
2013,03,01,04,14,7.10
2013,03,01,04,15,7.10
2013,03,01,04,16,7.10
2013,03,01,04,17,7.10
2013,03,01,04,18,7.10
2013,03,01,04,19,7.10
2013,03,01,04,20,7.10
2013,03,01,04,21,7.10
2013,03,01,04,22,7.10
2013,03,01,04,23,7.10
2013,03,01,04,24,7.10
2013,03,01,04,25,7.10
2013,03,01,04,26,7.10
2013,03,01,04,27,7.10
2013,03,01,04,28,7.10
2013,03,01,04,29,7.10
2013,03,01,04,30,7.10
2013,03,01,04,31,7.10
2013,03,01,04,32,7.10
2013,03,01,04,33,7.10
2013,03,01,04,34,7.10
2013,03,01,04,35,7.10
2013,03,01,04,36,7.10
2013,03,01,04,37,7.10
2013,03,01,04,38,7.10
2013,03,01,04,39,7.10
2013,03,01,04,40,7.10
2013,03,01,04,41,7.10
2013,03,01,04,42,7.10
2013,03,01,04,43,7.10
2013,03,01,04,44,7.10
2013,03,01,04,45,7.10
2013,03,01,04,46,7.10
2013,03,01,04,47,7.10
2013,03,01,04,48,7.10
2013,03,01,04,49,7.00
2013,03,01,04,50,7.00
2013,03,01,04,51,7.00
2013,03,01,04,52,7.00
2013,03,01,04,53,7.00
2013,03,01,04,54,7.00
2013,03,01,04,55,7.00
2013,03,01,04,56,7.00
2013,03,01,04,57,7.00
2013,03,01,04,58,7.00
2013,03,01,04,59,7.00
2013,03,01,05,00,7.00
2013,03,01,05,01,7.00
2013,03,01,05,02,7.00
2013,03,01,05,03,7.00
2013,03,01,05,04,7.00
2013,03,01,05,05,7.00
2013,03,01,05,06,7.00
2013,03,01,05,07,7.00
2013,03,01,05,08,7.10
2013,03,01,05,09,7.10
2013,03,01,05,10,7.10
2013,03,01,05,11,7.10
2013,03,01,05,12,7.10
2013,03,01,05,13,7.10
2013,03,01,05,14,7.10
2013,03,01,05,15,7.10
2013,03,01,05,16,7.10
2013,03,01,05,17,7.10
2013,03,01,05,18,7.10
2013,03,01,05,19,7.10
2013,03,01,05,20,7.10
2013,03,01,05,21,7.10
2013,03,01,05,22,7.10
2013,03,01,05,23,7.10
2013,03,01,05,24,7.10
2013,03,01,05,25,7.10
2013,03,01,05,26,7.10
2013,03,01,05,27,7.10
2013,03,01,05,28,7.10
2013,03,01,05,29,7.10
2013,03,01,05,30,7.10
2013,03,01,05,31,7.10
2013,03,01,05,32,7.10
2013,03,01,05,33,7.10
2013,03,01,05,34,7.10
2013,03,01,05,35,7.10
2013,03,01,05,36,7.10
2013,03,01,05,37,7.10
2013,03,01,05,38,7.10
2013,03,01,05,39,7.10
2013,03,01,05,40,7.10
2013,03,01,05,41,7.10
2013,03,01,05,42,7.10
2013,03,01,05,43,7.10
2013,03,01,05,44,7.10
2013,03,01,05,45,7.10
2013,03,01,05,46,7.10
2013,03,01,05,47,7.10
2013,03,01,05,48,7.10
2013,03,01,05,49,7.10
2013,03,01,05,50,7.10
2013,03,01,05,51,7.10
2013,03,01,05,52,7.10
2013,03,01,05,53,7.10
2013,03,01,05,54,7.10
2013,03,01,05,55,7.10
2013,03,01,05,56,7.10
2013,03,01,05,57,7.10
2013,03,01,05,58,7.20
2013,03,01,05,59,7.20
2013,03,01,06,00,7.20
2013,03,01,06,01,7.20
2013,03,01,06,02,7.20
2013,03,01,06,03,7.20
2013,03,01,06,04,7.20
2013,03,01,06,05,7.20
2013,03,01,06,06,7.30
2013,03,01,06,07,7.30
2013,03,01,06,08,7.30
2013,03,01,06,09,7.30
2013,03,01,06,10,7.30
2013,03,01,06,11,7.30
2013,03,01,06,12,7.30
2013,03,01,06,13,7.30
2013,03,01,06,14,7.30
2013,03,01,06,15,7.30
2013,03,01,06,16,7.30
2013,03,01,06,17,7.30
2013,03,01,06,18,7.30
2013,03,01,06,19,7.30
2013,03,01,06,20,7.30
2013,03,01,06,21,7.30
2013,03,01,06,22,7.30
2013,03,01,06,23,7.30
2013,03,01,06,24,7.30
2013,03,01,06,25,7.30
2013,03,01,06,26,7.30
2013,03,01,06,27,7.40
2013,03,01,06,28,7.40
2013,03,01,06,29,7.40
2013,03,01,06,30,7.40
2013,03,01,06,31,7.40
2013,03,01,06,32,7.40
2013,03,01,06,33,7.40
2013,03,01,06,34,7.40
2013,03,01,06,35,7.40
2013,03,01,06,36,7.40
2013,03,01,06,37,7.50
2013,03,01,06,38,7.50
2013,03,01,06,39,7.50
2013,03,01,06,40,7.40
2013,03,01,06,41,7.50
2013,03,01,06,42,7.50
2013,03,01,06,43,7.50
2013,03,01,06,44,7.50
2013,03,01,06,45,7.50
2013,03,01,06,46,7.60
2013,03,01,06,47,7.60
2013,03,01,06,48,7.60
2013,03,01,06,49,7.60
2013,03,01,06,50,7.60
2013,03,01,06,51,7.60
2013,03,01,06,52,7.60
2013,03,01,06,53,7.60
2013,03,01,06,54,7.60
2013,03,01,06,55,7.60
2013,03,01,06,56,7.60
2013,03,01,06,57,7.60
2013,03,01,06,58,7.60
2013,03,01,06,59,7.60
2013,03,01,07,00,7.70
2013,03,01,07,01,7.70
2013,03,01,07,02,7.80
2013,03,01,07,03,7.80
2013,03,01,07,04,7.80
2013,03,01,07,05,7.80
2013,03,01,07,06,7.90
2013,03,01,07,07,8.00
2013,03,01,07,08,8.10
2013,03,01,07,09,8.20
2013,03,01,07,10,8.30
2013,03,01,07,11,8.40
2013,03,01,07,12,8.40
2013,03,01,07,13,8.50
2013,03,01,07,14,8.50
2013,03,01,07,15,8.50
2013,03,01,07,16,8.60
2013,03,01,07,17,8.60
2013,03,01,07,18,8.60
2013,03,01,07,19,8.60
2013,03,01,07,20,8.60
2013,03,01,07,21,8.70
2013,03,01,07,22,8.70
2013,03,01,07,23,8.70
2013,03,01,07,24,8.70
2013,03,01,07,25,8.70
2013,03,01,07,26,8.70
2013,03,01,07,27,8.70
2013,03,01,07,28,8.70
2013,03,01,07,29,8.80
2013,03,01,07,30,8.80
2013,03,01,07,31,8.80
2013,03,01,07,32,8.80
2013,03,01,07,33,8.80
2013,03,01,07,34,8.80
2013,03,01,07,35,8.70
2013,03,01,07,36,8.70
2013,03,01,07,37,8.70
2013,03,01,07,38,8.80
2013,03,01,07,39,8.80
2013,03,01,07,40,8.80
2013,03,01,07,41,8.80
2013,03,01,07,42,8.80
2013,03,01,07,43,8.80
2013,03,01,07,44,8.80
2013,03,01,07,45,8.80
2013,03,01,07,46,8.80
2013,03,01,07,47,8.80
2013,03,01,07,48,8.80
2013,03,01,07,49,8.80
2013,03,01,07,50,8.80
2013,03,01,07,51,8.80
2013,03,01,07,52,8.80
2013,03,01,07,53,8.80
2013,03,01,07,54,8.80
2013,03,01,07,55,8.80
2013,03,01,07,56,8.80
2013,03,01,07,57,8.90
2013,03,01,07,58,8.90
2013,03,01,07,59,8.90
2013,03,01,08,00,8.90
2013,03,01,08,01,8.90
2013,03,01,08,02,8.90
2013,03,01,08,03,8.90
2013,03,01,08,04,8.90
2013,03,01,08,05,8.90
2013,03,01,08,06,8.90
2013,03,01,08,07,8.90
2013,03,01,08,08,8.90
2013,03,01,08,09,8.90
2013,03,01,08,10,8.90
2013,03,01,08,11,9.00
2013,03,01,08,12,9.00
2013,03,01,08,13,9.00
2013,03,01,08,14,9.00
2013,03,01,08,15,9.00
2013,03,01,08,16,9.10
2013,03,01,08,17,9.10
2013,03,01,08,18,9.10
2013,03,01,08,19,9.10
2013,03,01,08,20,9.10
2013,03,01,08,21,9.10
2013,03,01,08,22,9.10
2013,03,01,08,23,9.20
2013,03,01,08,24,9.20
2013,03,01,08,25,9.20
2013,03,01,08,26,9.20
2013,03,01,08,27,9.20
2013,03,01,08,28,9.20
2013,03,01,08,29,9.20
2013,03,01,08,30,9.20
2013,03,01,08,31,9.20
2013,03,01,08,32,9.20
2013,03,01,08,33,9.20
2013,03,01,08,34,9.30
2013,03,01,08,35,9.30
2013,03,01,08,36,9.30
2013,03,01,08,37,9.30
2013,03,01,08,38,9.30
2013,03,01,08,39,9.30
2013,03,01,08,40,9.30
2013,03,01,08,41,9.40
2013,03,01,08,42,9.40
2013,03,01,08,43,9.40
2013,03,01,08,44,9.40
2013,03,01,08,45,9.40
2013,03,01,08,46,9.40
2013,03,01,08,47,9.40
2013,03,01,08,48,9.50
2013,03,01,08,49,9.50
2013,03,01,08,50,9.50
2013,03,01,08,51,9.50
2013,03,01,08,52,9.50
2013,03,01,08,53,9.50
2013,03,01,08,54,9.50
2013,03,01,08,55,9.50
2013,03,01,08,56,9.50
2013,03,01,08,57,9.60
2013,03,01,08,58,9.60
2013,03,01,08,59,9.60
2013,03,01,09,00,9.60
2013,03,01,09,01,9.60
2013,03,01,09,02,9.60
2013,03,01,09,03,9.60
2013,03,01,09,04,9.60
2013,03,01,09,05,9.60
2013,03,01,09,06,9.60
2013,03,01,09,07,9.60
2013,03,01,09,08,9.60
2013,03,01,09,09,9.60
2013,03,01,09,10,9.70
2013,03,01,09,11,9.70
2013,03,01,09,12,9.70
2013,03,01,09,13,9.70
2013,03,01,09,14,9.70
2013,03,01,09,15,9.70
2013,03,01,09,16,9.70
2013,03,01,09,17,9.70
2013,03,01,09,18,9.70
2013,03,01,09,19,9.70
2013,03,01,09,20,9.70
2013,03,01,09,21,9.70
2013,03,01,09,22,9.70
2013,03,01,09,23,9.70
2013,03,01,09,24,9.70
2013,03,01,09,25,9.70
2013,03,01,09,26,9.80
2013,03,01,09,27,9.80
2013,03,01,09,28,9.80
2013,03,01,09,29,9.80
2013,03,01,09,30,9.80
2013,03,01,09,31,9.80
2013,03,01,09,32,9.80
2013,03,01,09,33,9.80
2013,03,01,09,34,9.80
2013,03,01,09,35,9.80
2013,03,01,09,36,9.80
2013,03,01,09,37,9.80
2013,03,01,09,38,9.80
2013,03,01,09,39,9.80
2013,03,01,09,40,9.80
2013,03,01,09,41,9.80
2013,03,01,09,42,9.80
2013,03,01,09,43,9.90
2013,03,01,09,44,9.90
2013,03,01,09,45,9.90
2013,03,01,09,46,9.90
2013,03,01,09,47,9.90
2013,03,01,09,48,9.90
2013,03,01,09,49,9.90
2013,03,01,09,50,10.00
2013,03,01,09,51,10.10
2013,03,01,09,52,10.10
2013,03,01,09,53,10.10
2013,03,01,09,54,10.10
2013,03,01,09,55,10.10
2013,03,01,09,56,10.20
2013,03,01,09,57,10.20
2013,03,01,09,58,10.30
2013,03,01,09,59,10.30
2013,03,01,10,00,10.30
2013,03,01,10,01,10.40
2013,03,01,10,02,10.40
2013,03,01,10,03,10.40
2013,03,01,10,04,10.40
2013,03,01,10,05,10.40
2013,03,01,10,06,10.40
2013,03,01,10,07,10.40
2013,03,01,10,08,10.40
2013,03,01,10,09,10.30
2013,03,01,10,10,10.20
2013,03,01,10,11,10.20
2013,03,01,10,12,10.10
2013,03,01,10,13,10.10
2013,03,01,10,14,10.10
2013,03,01,10,15,10.10
2013,03,01,10,16,10.10
2013,03,01,10,17,10.00
2013,03,01,10,18,9.90
2013,03,01,10,19,9.90
2013,03,01,10,20,9.90
2013,03,01,10,21,9.90
2013,03,01,10,22,9.90
2013,03,01,10,23,9.90
2013,03,01,10,24,9.90
2013,03,01,10,25,9.90
2013,03,01,10,26,9.90
2013,03,01,10,27,9.90
2013,03,01,10,28,9.80
2013,03,01,10,29,9.80
2013,03,01,10,30,9.80
2013,03,01,10,31,9.70
2013,03,01,10,32,9.70
2013,03,01,10,33,9.70
2013,03,01,10,34,9.70
2013,03,01,10,35,9.70
2013,03,01,10,36,9.60
2013,03,01,10,37,9.60
2013,03,01,10,38,9.60
2013,03,01,10,39,9.60
2013,03,01,10,40,9.60
2013,03,01,10,41,9.60
2013,03,01,10,42,9.60
2013,03,01,10,43,9.50
2013,03,01,10,44,9.50
2013,03,01,10,45,9.50
2013,03,01,10,46,9.50
2013,03,01,10,47,9.50
2013,03,01,10,48,9.50
2013,03,01,10,49,9.50
2013,03,01,10,50,9.40
2013,03,01,10,51,9.40
2013,03,01,10,52,9.40
2013,03,01,10,53,9.40
2013,03,01,10,54,9.40
2013,03,01,10,55,9.40
2013,03,01,10,56,9.40
2013,03,01,10,57,9.30
2013,03,01,10,58,9.30
2013,03,01,10,59,9.30
2013,03,01,11,00,9.20
2013,03,01,11,01,9.20
2013,03,01,11,02,9.20
2013,03,01,11,03,9.20
2013,03,01,11,04,9.20
2013,03,01,11,05,9.20
2013,03,01,11,06,9.20
2013,03,01,11,07,9.20
2013,03,01,11,08,9.20
2013,03,01,11,09,9.20
2013,03,01,11,10,9.20
2013,03,01,11,11,9.20
2013,03,01,11,12,9.30
2013,03,01,11,13,9.30
2013,03,01,11,14,9.30
2013,03,01,11,15,9.30
2013,03,01,11,16,9.30
2013,03,01,11,17,9.30
2013,03,01,11,18,9.30
2013,03,01,11,19,9.30
2013,03,01,11,20,9.30
2013,03,01,11,21,9.30
2013,03,01,11,22,9.30
2013,03,01,11,23,9.30
2013,03,01,11,24,9.30
2013,03,01,11,25,9.30
2013,03,01,11,26,9.30
2013,03,01,11,27,9.40
2013,03,01,11,28,9.40
2013,03,01,11,29,9.40
2013,03,01,11,30,9.40
2013,03,01,11,31,9.50
2013,03,01,11,32,9.50
2013,03,01,11,33,9.50
2013,03,01,11,34,9.60
2013,03,01,11,35,9.60
2013,03,01,11,36,9.70
2013,03,01,11,37,9.70
2013,03,01,11,38,9.70
2013,03,01,11,39,9.70
2013,03,01,11,40,9.70
2013,03,01,11,41,9.70
2013,03,01,11,42,9.70
2013,03,01,11,43,9.70
2013,03,01,11,44,9.80
2013,03,01,11,45,9.80
2013,03,01,11,46,9.80
2013,03,01,11,47,9.80
2013,03,01,11,48,9.90
2013,03,01,11,49,9.90
2013,03,01,11,50,9.90
2013,03,01,11,51,9.90
2013,03,01,11,52,9.90
2013,03,01,11,53,9.90
2013,03,01,11,54,9.90
2013,03,01,11,55,9.90
2013,03,01,11,56,9.90
2013,03,01,11,57,9.90
2013,03,01,11,58,9.90
2013,03,01,11,59,9.90
2013,03,01,12,00,9.90
2013,03,01,12,01,9.90
2013,03,01,12,02,9.90
2013,03,01,12,03,9.90
2013,03,01,12,04,9.90
2013,03,01,12,05,9.90
2013,03,01,12,06,9.90
2013,03,01,12,07,9.90
2013,03,01,12,08,9.90
2013,03,01,12,09,9.90
2013,03,01,12,10,9.90
2013,03,01,12,11,9.90
2013,03,01,12,12,9.90
2013,03,01,12,13,9.90
2013,03,01,12,14,9.90
2013,03,01,12,15,9.90
2013,03,01,12,16,9.90
2013,03,01,12,17,9.90
2013,03,01,12,18,9.90
2013,03,01,12,19,9.90
2013,03,01,12,20,9.90
2013,03,01,12,21,10.00
2013,03,01,12,22,10.10
2013,03,01,12,23,10.10
2013,03,01,12,24,10.10
2013,03,01,12,25,10.10
2013,03,01,12,26,10.10
2013,03,01,12,27,10.10
2013,03,01,12,28,10.10
2013,03,01,12,29,10.10
2013,03,01,12,30,10.10
2013,03,01,12,31,10.10
2013,03,01,12,32,10.20
2013,03,01,12,33,10.20
2013,03,01,12,34,10.20
2013,03,01,12,35,10.20
2013,03,01,12,36,10.30
2013,03,01,12,37,10.30
2013,03,01,12,38,10.30
2013,03,01,12,39,10.40
2013,03,01,12,40,10.40
2013,03,01,12,41,10.40
2013,03,01,12,42,10.40
2013,03,01,12,43,10.40
2013,03,01,12,44,10.40
2013,03,01,12,45,10.50
2013,03,01,12,46,10.60
2013,03,01,12,47,10.60
2013,03,01,12,48,10.60
2013,03,01,12,49,10.60
2013,03,01,12,50,10.60
2013,03,01,12,51,10.60
2013,03,01,12,52,10.70
2013,03,01,12,53,10.70
2013,03,01,12,54,10.80
2013,03,01,12,55,10.80
2013,03,01,12,56,10.90
2013,03,01,12,57,10.90
2013,03,01,12,58,10.90
2013,03,01,12,59,10.90
2013,03,01,13,00,11.10
2013,03,01,13,01,11.10
2013,03,01,13,02,11.10
2013,03,01,13,03,11.10
2013,03,01,13,04,11.20
2013,03,01,13,05,11.20
2013,03,01,13,06,11.30
2013,03,01,13,07,11.30
2013,03,01,13,08,11.40
2013,03,01,13,09,11.50
2013,03,01,13,10,11.60
2013,03,01,13,11,11.60
2013,03,01,13,12,11.70
2013,03,01,13,13,11.70
2013,03,01,13,14,11.80
2013,03,01,13,15,11.80
2013,03,01,13,16,11.90
2013,03,01,13,17,11.90
2013,03,01,13,18,11.90
2013,03,01,13,19,12.00
2013,03,01,13,20,12.00
2013,03,01,13,21,12.00
2013,03,01,13,22,12.00
2013,03,01,13,23,12.00
2013,03,01,13,24,12.00
2013,03,01,13,25,12.00
2013,03,01,13,26,12.00
2013,03,01,13,27,12.00
2013,03,01,13,28,12.00
2013,03,01,13,29,12.00
2013,03,01,13,30,12.00
2013,03,01,13,31,12.00
2013,03,01,13,32,11.90
2013,03,01,13,33,11.90
2013,03,01,13,34,11.90
2013,03,01,13,35,11.90
2013,03,01,13,36,11.90
2013,03,01,13,37,11.90
2013,03,01,13,38,11.90
2013,03,01,13,39,11.90
2013,03,01,13,40,11.90
2013,03,01,13,41,11.90
2013,03,01,13,42,12.00
2013,03,01,13,43,12.00
2013,03,01,13,44,12.00
2013,03,01,13,45,12.00
2013,03,01,13,46,12.10
2013,03,01,13,47,12.10
2013,03,01,13,48,12.10
2013,03,01,13,49,12.20
2013,03,01,13,50,12.20
2013,03,01,13,51,12.30
2013,03,01,13,52,12.30
2013,03,01,13,53,12.30
2013,03,01,13,54,12.30
2013,03,01,13,55,12.40
2013,03,01,13,56,12.40
2013,03,01,13,57,12.40
2013,03,01,13,58,12.40
2013,03,01,13,59,12.40
2013,03,01,14,00,12.40
2013,03,01,14,01,12.40
2013,03,01,14,02,12.40
2013,03,01,14,03,12.40
2013,03,01,14,04,12.30
2013,03,01,14,05,12.30
2013,03,01,14,06,12.30
2013,03,01,14,07,12.30
2013,03,01,14,08,12.30
2013,03,01,14,09,12.30
2013,03,01,14,10,12.30
2013,03,01,14,11,12.30
2013,03,01,14,12,12.30
2013,03,01,14,13,12.30
2013,03,01,14,14,12.30
2013,03,01,14,15,12.30
2013,03,01,14,16,12.30
2013,03,01,14,17,12.40
2013,03,01,14,18,12.40
2013,03,01,14,19,12.40
2013,03,01,14,20,12.40
2013,03,01,14,21,12.40
2013,03,01,14,22,12.50
2013,03,01,14,23,12.50
2013,03,01,14,24,12.50
2013,03,01,14,25,12.50
2013,03,01,14,26,12.50
2013,03,01,14,27,12.50
2013,03,01,14,28,12.50
2013,03,01,14,29,12.50
2013,03,01,14,30,12.50
2013,03,01,14,31,12.50
2013,03,01,14,32,12.50
2013,03,01,14,33,12.50
2013,03,01,14,34,12.60
2013,03,01,14,35,12.60
2013,03,01,14,36,12.60
2013,03,01,14,37,12.60
2013,03,01,14,38,12.60
2013,03,01,14,39,12.60
2013,03,01,14,40,12.60
2013,03,01,14,41,12.60
2013,03,01,14,42,12.50
2013,03,01,14,43,12.50
2013,03,01,14,44,12.50
2013,03,01,14,45,12.50
2013,03,01,14,46,12.50
2013,03,01,14,47,12.50
2013,03,01,14,48,12.50
2013,03,01,14,49,12.40
2013,03,01,14,50,12.40
2013,03,01,14,51,12.40
2013,03,01,14,52,12.40
2013,03,01,14,53,12.30
2013,03,01,14,54,12.30
2013,03,01,14,55,12.30
2013,03,01,14,56,12.30
2013,03,01,14,57,12.30
2013,03,01,14,58,12.30
2013,03,01,14,59,12.30
2013,03,01,15,00,12.30
2013,03,01,15,01,12.40
2013,03,01,15,02,12.40
2013,03,01,15,03,12.40
2013,03,01,15,04,12.40
2013,03,01,15,05,12.40
2013,03,01,15,06,12.40
2013,03,01,15,07,12.40
2013,03,01,15,08,12.40
2013,03,01,15,09,12.40
2013,03,01,15,10,12.40
2013,03,01,15,11,12.30
2013,03,01,15,12,12.30
2013,03,01,15,13,12.30
2013,03,01,15,14,12.30
2013,03,01,15,15,12.30
2013,03,01,15,16,12.30
2013,03,01,15,17,12.30
2013,03,01,15,18,12.30
2013,03,01,15,19,12.30
2013,03,01,15,20,12.30
2013,03,01,15,21,12.30
2013,03,01,15,22,12.30
2013,03,01,15,23,12.30
2013,03,01,15,24,12.40
2013,03,01,15,25,12.40
2013,03,01,15,26,12.40
2013,03,01,15,27,12.40
2013,03,01,15,28,12.40
2013,03,01,15,29,12.40
2013,03,01,15,30,12.40
2013,03,01,15,31,12.40
2013,03,01,15,32,12.40
2013,03,01,15,33,12.40
2013,03,01,15,34,12.40
2013,03,01,15,35,12.40
2013,03,01,15,36,12.40
2013,03,01,15,37,12.40
2013,03,01,15,38,12.40
2013,03,01,15,39,12.40
2013,03,01,15,40,12.40
2013,03,01,15,41,12.40
2013,03,01,15,42,12.40
2013,03,01,15,43,12.40
2013,03,01,15,44,12.40
2013,03,01,15,45,12.40
2013,03,01,15,46,12.40
2013,03,01,15,47,12.40
2013,03,01,15,48,12.40
2013,03,01,15,49,12.30
2013,03,01,15,50,12.30
2013,03,01,15,51,12.30
2013,03,01,15,52,12.30
2013,03,01,15,53,12.30
2013,03,01,15,54,12.30
2013,03,01,15,55,12.30
2013,03,01,15,56,12.30
2013,03,01,15,57,12.30
2013,03,01,15,58,12.40
2013,03,01,15,59,12.40
2013,03,01,16,00,12.40
2013,03,01,16,01,12.40
2013,03,01,16,02,12.40
2013,03,01,16,03,12.40
2013,03,01,16,04,12.40
2013,03,01,16,05,12.40
2013,03,01,16,06,12.40
2013,03,01,16,07,12.40
2013,03,01,16,08,12.40
2013,03,01,16,09,12.40
2013,03,01,16,10,12.30
2013,03,01,16,11,12.30
2013,03,01,16,12,12.30
2013,03,01,16,13,12.30
2013,03,01,16,14,12.30
2013,03,01,16,15,12.30
2013,03,01,16,16,12.20
2013,03,01,16,17,12.20
2013,03,01,16,18,12.20
2013,03,01,16,19,12.20
2013,03,01,16,20,12.20
2013,03,01,16,21,12.20
2013,03,01,16,22,12.10
2013,03,01,16,23,12.10
2013,03,01,16,24,12.10
2013,03,01,16,25,12.10
2013,03,01,16,26,12.00
2013,03,01,16,27,12.00
2013,03,01,16,28,12.00
2013,03,01,16,29,11.90
2013,03,01,16,30,11.90
2013,03,01,16,31,11.80
2013,03,01,16,32,11.80
2013,03,01,16,33,11.80
2013,03,01,16,34,11.80
2013,03,01,16,35,11.70
2013,03,01,16,36,11.70
2013,03,01,16,37,11.70
2013,03,01,16,38,11.70
2013,03,01,16,39,11.70
2013,03,01,16,40,11.70
2013,03,01,16,41,11.70
2013,03,01,16,42,11.70
2013,03,01,16,43,11.70
2013,03,01,16,44,11.70
2013,03,01,16,45,11.60
2013,03,01,16,46,11.60
2013,03,01,16,47,11.60
2013,03,01,16,48,11.60
2013,03,01,16,49,11.60
2013,03,01,16,50,11.60
2013,03,01,16,51,11.50
2013,03,01,16,52,11.40
2013,03,01,16,53,11.40
2013,03,01,16,54,11.40
2013,03,01,16,55,11.40
2013,03,01,16,56,11.40
2013,03,01,16,57,11.30
2013,03,01,16,58,11.30
2013,03,01,16,59,11.30
2013,03,01,17,00,11.30
2013,03,01,17,01,11.30
2013,03,01,17,02,11.30
2013,03,01,17,03,11.20
2013,03,01,17,04,11.20
2013,03,01,17,05,11.20
2013,03,01,17,06,11.30
2013,03,01,17,07,11.30
2013,03,01,17,08,11.30
2013,03,01,17,09,11.40
2013,03,01,17,10,11.40
2013,03,01,17,11,11.40
2013,03,01,17,12,11.40
2013,03,01,17,13,11.40
2013,03,01,17,14,11.40
2013,03,01,17,15,11.40
2013,03,01,17,16,11.40
2013,03,01,17,17,11.40
2013,03,01,17,18,11.40
2013,03,01,17,19,11.40
2013,03,01,17,20,11.40
2013,03,01,17,21,11.30
2013,03,01,17,22,11.30
2013,03,01,17,23,11.30
2013,03,01,17,24,11.20
2013,03,01,17,25,11.20
2013,03,01,17,26,11.20
2013,03,01,17,27,11.10
2013,03,01,17,28,11.10
2013,03,01,17,29,11.10
2013,03,01,17,30,11.10
2013,03,01,17,31,11.10
2013,03,01,17,32,11.10
2013,03,01,17,33,11.00
2013,03,01,17,34,10.90
2013,03,01,17,35,10.90
2013,03,01,17,36,10.90
2013,03,01,17,37,10.90
2013,03,01,17,38,10.90
2013,03,01,17,39,10.90
2013,03,01,17,40,10.90
2013,03,01,17,41,10.90
2013,03,01,17,42,10.90
2013,03,01,17,43,10.90
2013,03,01,17,44,10.90
2013,03,01,17,45,10.90
2013,03,01,17,46,10.90
2013,03,01,17,47,10.80
2013,03,01,17,48,10.80
2013,03,01,17,49,10.80
2013,03,01,17,50,10.90